Flag for France Weather past 2 weeks in Aix-en-Provence, France

Now
59 °F

Sunny.


Feels Like: 57 °F
Forecast: 47 / 77 °F
Wind: 13 mph from North

Location: Marseille / Marignane

Current Time: May 27, 2015 at 8:27:29 AM

Latest Report: May 27, 2015 at 8:00 AM


Visibility: 10 mi

Pressure: 29.98 "Hg

Humidity: 55%

Dew point: 43 °F

Location of Aix-en-ProvenceLocation

Historic Weather in Aix-en-Provence — Graph

°F

Aix-en-Provence temperature yesterday

Maximum temperature yesterday: 73 °F (at 1:00 PM)
Minimum temperature yesterday: 61 °F (at 11:30 PM)
Average temperature yesterday: 68 °F

Past Weeks' High & Low Weather Summary

 TemperatureHumidityPressure
High81 °F (May 14, 2:30 PM)100% (May 12, 7:00 AM)30.24 "Hg (May 12, 7:00 AM)
Low48 °F (May 23, 6:00 AM)24% (May 20, 5:30 PM)29.74 "Hg (May 14, 7:00 PM)
Average65 °F54%29.96 "Hg
* Reported May 12 7:00 AM — May 27 7:30 AM, Aix-en-Provence, Weather by CustomWeather, © 2015

Note: Actual official high and low records may vary slightly from our data, if they occured in-between our weather recording intervals... More about our weather records

Advertising

Aix-en-Provence weather history for previous 24 hours

 ConditionsComfort  
Time TempWeatherWind HumidityBarometerVisibility
7:30 AM
Wed, May 27
57 °FSunny.12 mph55%29.98 "Hg10 mi
7:00 AM57 °FClear.10 mph55%29.98 "Hg10 mi
6:30 AM55 °FPassing clouds.12 mph59%29.95 "HgN/A
6:00 AM57 °FClear.14 mph55%29.95 "Hg10 mi
5:30 AM57 °FClear.13 mph55%29.95 "Hg10 mi
5:00 AM57 °FClear.15 mph55%29.95 "Hg10 mi
4:30 AM57 °FClear.14 mph55%29.95 "Hg10 mi
4:00 AM57 °FClear.14 mph55%29.95 "Hg10 mi
3:30 AM59 °FClear.18 mph48%29.95 "Hg10 mi
3:00 AM59 °FClear.18 mph48%29.95 "Hg10 mi
2:30 AM59 °FClear.18 mph48%29.95 "Hg10 mi
2:00 AM59 °FClear.21 mph45%29.95 "Hg10 mi
1:30 AM59 °FClear.20 mph45%29.95 "Hg10 mi
1:00 AM61 °FClear.22 mph42%29.95 "Hg10 mi
12:30 AM61 °FClear.21 mph42%29.95 "Hg10 mi
12:00 AM61 °FClear.21 mph45%29.95 "Hg10 mi
11:30 PM
Tue, May 26
61 °FClear.24 mph42%29.95 "Hg10 mi
11:00 PM63 °FClear.26 mph42%29.92 "Hg10 mi
10:30 PM63 °FClear.29 mph42%29.92 "Hg10 mi
10:00 PM64 °FSunny.31 mph40%29.92 "Hg10 mi
9:30 PM64 °FSunny.31 mph43%29.89 "Hg10 mi
9:00 PM64 °FSunny.31 mph43%29.89 "Hg10 mi
8:30 PM66 °FSunny.30 mph40%29.89 "Hg10 mi
8:00 PM68 °FSunny.36 mph40%29.89 "Hg10 mi
7:30 PM70 °FSunny.32 mph38%29.86 "Hg10 mi
7:00 PM70 °FSunny.33 mph38%29.86 "Hg10 mi
6:30 PM70 °FSunny.35 mph38%29.83 "Hg10 mi
6:00 PM72 °FSunny.30 mph38%29.83 "Hg10 mi
5:30 PM72 °FSunny.29 mph38%29.83 "Hg10 mi
5:00 PM72 °FSunny.32 mph38%29.83 "Hg10 mi
4:30 PM73 °FSunny.32 mph36%29.83 "Hg10 mi
4:00 PM73 °FSunny.31 mph36%29.83 "Hg10 mi
3:30 PM73 °FSunny.30 mph38%29.83 "Hg10 mi
3:00 PM73 °FSunny.32 mph38%29.83 "Hg10 mi
2:30 PM73 °FSunny.33 mph38%29.83 "Hg10 mi
2:00 PM73 °FPassing clouds.31 mph41%29.83 "HgN/A
1:30 PM72 °FPassing clouds.32 mph38%29.83 "HgN/A
1:00 PM73 °FPassing clouds.30 mph38%29.83 "HgN/A
12:30 PM72 °FPassing clouds.30 mph44%29.86 "HgN/A
12:00 PM72 °FPassing clouds.30 mph41%29.86 "HgN/A
11:30 AM72 °FPassing clouds.29 mph41%29.86 "HgN/A
11:00 AM70 °FPassing clouds.31 mph43%29.86 "HgN/A
10:30 AM70 °FPassing clouds.31 mph43%29.83 "HgN/A
10:00 AM70 °FPassing clouds.31 mph50%29.86 "HgN/A
9:30 AM68 °FPassing clouds.29 mph53%29.86 "HgN/A
9:00 AM66 °FPassing clouds.26 mph56%29.86 "HgN/A
8:30 AM66 °FPassing clouds.25 mph60%29.83 "HgN/A
8:00 AM64 °FPassing clouds.25 mph64%29.86 "HgN/A
Weather by CustomWeather, © 2015

See weather overviewHow to use our weather pages